Weather Roundup
Issued by NWS Corpus Christi, TX

Home | Current Version | Previous Version | Text Only | Print | Product List | Glossary On
Versions: 1 2 3 4 5 6 7 8 9 10 11 12 13 14 15 16 17 18 19 20 21 22 23 24 25 26 27 28 29 30 31 32 33 34 35 36 37 38 39 40 41 42 43 44 45 46 47 48 49 50
000
ASUS44 KCRP 252110
HRRCRP

SOUTH TEXAS REGIONAL WEATHER ROUNDUP
NATIONAL WEATHER SERVICE CORPUS CHRISTI TX
400 PM CDT SUN SEP 25 2016


TXZ229>244-252200-
...CORPUS CHRISTI AREA OBSERVATIONS...

CITY           SKY/WX    TMP DP  RH WIND       PRES   REMARKS
CORPUS CHRISTI CLOUDY    89  78  70 SE21      29.88F THUNDER HX 103
NAS CORPUS CHR LGT RAIN  81  76  84 SE5       29.88F
ROCKPORT       PTSUNNY   86  72  62 SE10G21   29.89F HX  92
KINGSVILLE NAS PTSUNNY   93  75  55 SE20G28   29.85F HX 104
ALICE          PTSUNNY   92  73  53 SE14G24   29.85F HX 100
FALFURRIAS     MOSUNNY   98  69  39 SE17      29.82F HX 104
$$

...VICTORIA AREA OBSERVATIONS...

CITY           SKY/WX    TMP DP  RH WIND       PRES   REMARKS
VICTORIA       MOSUNNY   85  76  74 S7        29.92S HX  94
BEEVILLE       PTSUNNY   90  75  62 SE10G17   29.88F HX 100
PLEASANTON     CLOUDY    86  69  56 NW12G24   29.90R
SAN ANTONIO    TSTM      72  70  93 NW15G21   29.96R VSB 1
$$

...LAREDO AREA OBSERVATIONS...

CITY           SKY/WX    TMP DP  RH WIND       PRES   REMARKS
LAREDO         CLOUDY    98  67  36 SE13      29.82F HX 102
COTULLA        CLOUDY    85  69  58 N16       29.88F
DEL RIO        CLOUDY    74  70  87 N6        29.96F
MCALLEN        SUNNY    100  67  33 SE22G30   29.81F HX 105
HEBBRONVILLE   MOSUNNY   97  64  33 SE17G24   29.83F HX  98
$$

...OTHER TEXAS OBSERVATIONS...

CITY           SKY/WX    TMP DP  RH WIND       PRES   REMARKS
BROWNSVILLE    MOSUNNY   93  75  55 SE17      29.85F HX 104
HOUSTON        TSTM      74  72  93 NW6       29.98R
COL. STATION   CLOUDY    75  73  93 S5        29.99R
AUSTIN         TSTM      81  75  82 E5        29.96R
WACO           CLOUDY    78  73  84 NE9       29.99S
FORT WORTH     LGT RAIN  78  73  84 N8        30.02S
WICHITA FALLS  CLOUDY    73  66  78 N23       30.09R
LUBBOCK        LGT RAIN  61  51  70 NE22      30.23F
EL PASO        PTSUNNY   75  38  26 E18       30.14F
$$

...MARINE OBSERVATIONS...

STATION/POSITION TIME  SKY/WX   TEMP    WIND        PRES    VSBY  WAVE   SWELL
                                AIR SEA DIR/SP/G                  HT/PER HT/PER
                 (UTC)          (F)     (DEG/KT/KT) (MB)    (MI)  (FT/S) (FT/S)
PORT ARANSAS     2100            82 85  110/ 14/ 16 1012.3F
BUOY 90 E PORT A 2050            84 86  140/ 12/ 14 1013.1S         3/ 5   2/11
BUOY 45 SE BAFFI 2050            85 86  140/ 12/ 16 1011.5F         4/ 6   3/ 6
BUOY 200 E PT IS 2050            84 87  120/ 14/ 17 1012.1F         3/ 4
BUOY 15 E GALVES 2050            80 85  300/  4/  6 1014.5R         3/ 5   2/ 5
$$



USA.gov is the U.S. government's official web portal to all federal, state and local government web resources and services.